• In Deutschland
  • Länderverzeichnis
  • Für 7 Tage
  • Wassertemperatur
  • Satellitenkarten
  • Wetterkarte
  • Widgets
  • user-avatar
    Anmelden

    Stündliche Wetter Verhniy Cipikan

    Heute, 16 Juli, Montag

    Zeit Temperatur Niederschläge Wind Luftdruck Luftfeuchtigkeit
    00:00 +15°C° 0 mm 1 m/S 656 mmHg 89%
    01:00 +14°C° 0 mm 1 m/S 656 mmHg 90%
    02:00 +14°C° 0 mm 1 m/S 656 mmHg 91%
    03:00 +14°C° 0 mm 1 m/S 656 mmHg 91%
    04:00 +14°C° 0 mm 1 m/S 656 mmHg 92%
    05:00 +14°C° 0 mm 1 m/S 656 mmHg 92%
    06:00 +16°C° 0,1 mm 1 m/S 656 mmHg 87%
    07:00 +18°C° 0,1 mm 1 m/S 657 mmHg 83%
    08:00 +19°C° 0 mm 2 m/S 657 mmHg 78%
    09:00 +20°C° 0,3 mm 2 m/S 657 mmHg 72%
    10:00 +23°C° 0,3 mm 2 m/S 657 mmHg 65%
    11:00 +24°C° 0,3 mm 3 m/S 657 mmHg 59%
    12:00 +24°C° 1 mm 3 m/S 657 mmHg 59%
    13:00 +24°C° 1 mm 3 m/S 657 mmHg 59%
    14:00 +24°C° 0 mm 3 m/S 657 mmHg 59%
    15:00 +24°C° 0,7 mm 3 m/S 657 mmHg 59%
    16:00 +24°C° 0,7 mm 3 m/S 657 mmHg 60%
    17:00 +24°C° 0,7 mm 3 m/S 657 mmHg 60%
    18:00 +23°C° 0,5 mm 2 m/S 656 mmHg 67%
    19:00 +20°C° 0,5 mm 2 m/S 656 mmHg 74%
    20:00 +20°C° 0,5 mm 1 m/S 656 mmHg 81%
    21:00 +19°C° 0,3 mm 1 m/S 655 mmHg 84%
    22:00 +18°C° 0,3 mm 1 m/S 655 mmHg 87%
    23:00 +16°C° 0,3 mm 1 m/S 655 mmHg 90%

    Morgen, 17 Juli, Dienstag

    Zeit Temperatur Niederschläge Wind Luftdruck Luftfeuchtigkeit
    00:00 +15°C° 0,2 mm 1 m/S 655 mmHg 91%
    01:00 +14°C° 0,2 mm 0 m/S 655 mmHg 91%
    02:00 +14°C° 0,2 mm 0 m/S 655 mmHg 92%
    03:00 +14°C° 0,1 mm 0 m/S 655 mmHg 92%
    04:00 +14°C° 0,1 mm 0 m/S 655 mmHg 93%
    05:00 +14°C° 0,1 mm 0 m/S 655 mmHg 93%
    06:00 +15°C° 0,2 mm 0 m/S 656 mmHg 89%
    07:00 +16°C° 0,2 mm 0 m/S 656 mmHg 84%
    08:00 +18°C° 0,2 mm 0 m/S 657 mmHg 80%
    09:00 +19°C° 0,5 mm 0 m/S 657 mmHg 74%
    10:00 +20°C° 0,5 mm 0 m/S 657 mmHg 68%
    11:00 +23°C° 0,5 mm 1 m/S 657 mmHg 63%
    12:00 +24°C° 1,2 mm 1 m/S 657 mmHg 62%
    13:00 +24°C° 1,2 mm 1 m/S 657 mmHg 60%
    14:00 +25°C° 1,2 mm 1 m/S 657 mmHg 59%
    15:00 +24°C° 2,1 mm 1 m/S 657 mmHg 62%
    16:00 +23°C° 2,1 mm 1 m/S 657 mmHg 65%
    17:00 +23°C° 2,1 mm 1 m/S 656 mmHg 68%
    18:00 +22°C° 0,8 mm 1 m/S 656 mmHg 73%
    19:00 +21°C° 0,8 mm 1 m/S 656 mmHg 78%
    20:00 +20°C° 0,8 mm 1 m/S 656 mmHg 83%
    21:00 +19°C° 0,3 mm 1 m/S 656 mmHg 84%
    22:00 +17°C° 0,3 mm 2 m/S 656 mmHg 86%
    23:00 +16°C° 0,3 mm 2 m/S 657 mmHg 88%

    übermorgen, 18 Juli, Mittwoch

    Zeit Temperatur Niederschläge Wind Luftdruck Luftfeuchtigkeit
    00:00 +15°C° 0 mm 2 m/S 656 mmHg 88%
    01:00 +15°C° 0 mm 1 m/S 656 mmHg 89%
    02:00 +14°C° 0 mm 1 m/S 656 mmHg 90%
    03:00 +14°C° 0 mm 1 m/S 656 mmHg 89%
    04:00 +14°C° 0 mm 1 m/S 656 mmHg 89%
    05:00 +14°C° 0 mm 1 m/S 657 mmHg 89%
    06:00 +15°C° 0 mm 2 m/S 657 mmHg 84%
    07:00 +17°C° 0 mm 2 m/S 657 mmHg 79%
    08:00 +18°C° 0 mm 2 m/S 658 mmHg 74%
    09:00 +19°C° 0 mm 2 m/S 658 mmHg 70%
    10:00 +20°C° 0 mm 2 m/S 658 mmHg 67%
    11:00 +21°C° 0 mm 3 m/S 658 mmHg 63%
    12:00 +21°C° 0,3 mm 3 m/S 658 mmHg 64%
    13:00 +21°C° 0,3 mm 3 m/S 658 mmHg 64%
    14:00 +22°C° 0,3 mm 3 m/S 658 mmHg 65%
    15:00 +21°C° 0,8 mm 4 m/S 658 mmHg 69%
    16:00 +21°C° 0,8 mm 4 m/S 658 mmHg 73%
    17:00 +20°C° 0,8 mm 4 m/S 658 mmHg 77%
    18:00 +19°C° 0,4 mm 3 m/S 658 mmHg 81%
    19:00 +18°C° 0,4 mm 3 m/S 658 mmHg 86%
    20:00 +17°C° 0,4 mm 2 m/S 657 mmHg 90%
    21:00 +17°C° 0,1 mm 2 m/S 658 mmHg 92%
    22:00 +16°C° 0,1 mm 2 m/S 658 mmHg 94%
    23:00 +15°C° 0,1 mm 1 m/S 658 mmHg 96%

    19 Juli, Donnerstag

    Zeit Temperatur Niederschläge Wind Luftdruck Luftfeuchtigkeit
    00:00 +15°C° 0,1 mm 1 m/S 658 mmHg 96%
    01:00 +15°C° 0,1 mm 1 m/S 658 mmHg 96%
    02:00 +15°C° 0,1 mm 1 m/S 658 mmHg 96%
    03:00 +15°C° 0,2 mm 1 m/S 658 mmHg 96%
    04:00 +15°C° 0,2 mm 1 m/S 658 mmHg 97%
    05:00 +14°C° 0,2 mm 1 m/S 658 mmHg 97%
    06:00 +15°C° 0 mm 1 m/S 658 mmHg 94%
    07:00 +15°C° 0 mm 1 m/S 658 mmHg 91%
    08:00 +15°C° 0 mm 1 m/S 658 mmHg 88%
    09:00 +16°C° 0 mm 1 m/S 658 mmHg 86%
    10:00 +16°C° 0 mm 1 m/S 658 mmHg 84%
    11:00 +18°C° 0 mm 1 m/S 658 mmHg 82%
    12:00 +19°C° 0 mm 1 m/S 658 mmHg 76%
    13:00 +20°C° 0 mm 2 m/S 658 mmHg 71%
    14:00 +21°C° 0 mm 2 m/S 658 mmHg 66%
    15:00 +23°C° 0,1 mm 2 m/S 658 mmHg 65%
    16:00 +23°C° 0,1 mm 2 m/S 658 mmHg 63%
    17:00 +23°C° 0,1 mm 2 m/S 658 mmHg 62%
    18:00 +21°C° 0,1 mm 2 m/S 657 mmHg 68%
    19:00 +20°C° 0,1 mm 2 m/S 657 mmHg 73%
    20:00 +19°C° 0,1 mm 2 m/S 657 mmHg 79%
    21:00 +19°C° 0 mm 1 m/S 657 mmHg 83%
    22:00 +16°C° 0 mm 1 m/S 656 mmHg 87%
    23:00 +15°C° 0 mm 1 m/S 656 mmHg 91%

    20 Juli, Freitag

    Zeit Temperatur Niederschläge Wind Luftdruck Luftfeuchtigkeit
    00:00 +14°C° 0 mm 1 m/S 656 mmHg 92%
    01:00 +14°C° 0 mm 1 m/S 655 mmHg 92%
    02:00 +13°C° 0 mm 1 m/S 655 mmHg 93%
    03:00 +13°C° 0 mm 1 m/S 655 mmHg 93%
    04:00 +13°C° 0 mm 1 m/S 655 mmHg 93%
    05:00 +13°C° 0 mm 1 m/S 655 mmHg 94%
    06:00 +15°C° 0 mm 1 m/S 655 mmHg 89%
    07:00 +18°C° 0 mm 1 m/S 656 mmHg 84%
    08:00 +19°C° 0 mm 2 m/S 656 mmHg 79%
    09:00 +20°C° 0,1 mm 3 m/S 656 mmHg 75%
    10:00 +21°C° 0,1 mm 4 m/S 656 mmHg 71%
    11:00 +22°C° 0,1 mm 5 m/S 656 mmHg 67%
    12:00 +22°C° 0,3 mm 5 m/S 655 mmHg 68%
    13:00 +22°C° 0,3 mm 5 m/S 655 mmHg 68%
    14:00 +22°C° 0,3 mm 5 m/S 655 mmHg 69%
    15:00 +22°C° 1,2 mm 5 m/S 654 mmHg 72%
    16:00 +22°C° 1,2 mm 5 m/S 654 mmHg 75%
    17:00 +22°C° 1,2 mm 5 m/S 653 mmHg 77%
    18:00 +21°C° 3,9 mm 4 m/S 653 mmHg 82%
    19:00 +20°C° 3,9 mm 4 m/S 653 mmHg 87%
    20:00 +19°C° 3,9 mm 3 m/S 652 mmHg 92%
    21:00 +18°C° 1,6 mm 3 m/S 652 mmHg 94%
    22:00 +17°C° 1,6 mm 2 m/S 652 mmHg 95%
    23:00 +16°C° 1,6 mm 2 m/S 652 mmHg 97%

    21 Juli, Samstag

    Zeit Temperatur Niederschläge Wind Luftdruck Luftfeuchtigkeit
    00:00 +16°C° 0,5 mm 2 m/S 651 mmHg 97%
    01:00 +16°C° 0,5 mm 1 m/S 651 mmHg 97%
    02:00 +16°C° 0,5 mm 1 m/S 651 mmHg 98%
    03:00 +16°C° 0,3 mm 1 m/S 651 mmHg 98%
    04:00 +16°C° 0,3 mm 1 m/S 650 mmHg 97%
    05:00 +16°C° 0,3 mm 1 m/S 650 mmHg 97%
    06:00 +18°C° 0,1 mm 1 m/S 650 mmHg 93%
    07:00 +19°C° 0,1 mm 1 m/S 650 mmHg 90%
    08:00 +20°C° 0,1 mm 1 m/S 650 mmHg 86%
    09:00 +20°C° 0,1 mm 2 m/S 650 mmHg 78%
    10:00 +21°C° 0,1 mm 3 m/S 650 mmHg 70%
    11:00 +22°C° 0,1 mm 3 m/S 650 mmHg 62%
    12:00 +23°C° 0,3 mm 4 m/S 650 mmHg 59%
    13:00 +23°C° 0,3 mm 4 m/S 650 mmHg 56%
    14:00 +25°C° 0,3 mm 5 m/S 650 mmHg 53%
    15:00 +23°C° 0,5 mm 5 m/S 650 mmHg 56%
    16:00 +23°C° 0,5 mm 5 m/S 650 mmHg 58%
    17:00 +22°C° 0,5 mm 5 m/S 650 mmHg 60%
    18:00 +21°C° 0,1 mm 4 m/S 650 mmHg 65%
    19:00 +19°C° 0,2 mm 4 m/S 650 mmHg 71%
    20:00 +18°C° 0,2 mm 3 m/S 650 mmHg 76%
    21:00 +16°C° 0,1 mm 3 m/S 650 mmHg 80%
    22:00 +14°C° 0,1 mm 3 m/S 650 mmHg 83%
    23:00 +13°C° 0,1 mm 2 m/S 650 mmHg 87%
    Mehr zeigen